RH
66 71 74 72 73 82 97 41 13 22 14 15 22 28 26 20 18 17 20 34 66 83 75 81 87 93 55 62 80 66 76 87 98 95 97 98 98 96 76 93 91 70 86 50 51
38 92 81 84 85 86 91 76 12 21 15 16 22 25 27 20 20 22 30 45 74 92 77 93 78 72 68 70 83 77 85 91 89 88 94 100 97 84 82 89 98 83 69 56 53
16 56 96 81 74 88 82 94 14 20 18 18 20 24 28 23 23 30 32 36 49 77 92 98 79 69 71 67 79 72 89 92 97 98 99 94 99 99 97 81 85 69 58 57 57
6 21 50 77 99 97 100 87 17 20 20 17 20 22 29 34 33 27 37 55 77 83 97 87 91 89 81 80 69 76 77 95 92 98 100 99 97 97 79 81 81 53 50 49 54
4 7 28 76 99 99 97 93 85 17 25 17 19 23 26 37 38 34 56 57 70 87 91 86 95 96 84 73 66 67 68 78 92 83 99 98 88 98 100 97 72 59 64 65 63
5 4 9 52 77 61 90 73 90 54 21 16 18 22 25 38 42 38 63 72 88 90 88 90 83 85 86 64 67 55 68 87 75 84 95 100 99 100 92 77 70 67 71 67 64
4 5 6 8 51 84 93 99 98 50 28 19 20 21 24 35 40 46 76 84 96 100 99 98 97 100 88 84 48 53 58 81 70 91 97 99 90 86 84 83 72 76 72 68 72
3 4 7 8 40 79 80 91 95 34 28 33 20 19 21 28 38 47 74 77 100 100 100 98 93 95 94 91 66 59 52 80 81 85 95 98 98 99 76 76 69 68 78 78 70
5 5 7 9 8 44 90 81 100 28 26 29 22 20 23 27 40 57 65 78 98 91 95 99 99 96 94 99 96 61 77 40 66 73 86 99 99 98 78 74 76 66 74 90 84
5 5 8 10 9 10 83 85 99 38 35 40 25 22 27 32 37 59 68 97 96 94 96 86 95 94 98 98 72 80 50 30 48 56 58 84 98 100 87 74 76 74 74 83 84
6 6 10 14 13 8 60 97 99 49 50 33 24 24 30 36 44 55 73 79 94 93 90 89 97 94 86 94 83 96 81 49 79 58 49 80 99 99 96 82 69 69 73 88 87
11 10 11 12 16 9 85 100 96 77 37 34 28 25 29 34 42 55 65 72 86 91 89 88 94 90 92 92 94 98 86 90 57 43 67 78 96 100 97 88 73 67 73 73 86
20 16 10 11 16 11 98 99 99 75 55 57 34 30 30 32 39 52 57 60 62 69 91 94 87 85 93 90 93 91 86 88 91 76 90 72 61 93 98 81 74 68 70 73 73
44 32 13 14 21 77 86 96 96 44 65 48 35 35 28 30 34 47 64 64 64 69 62 68 75 80 85 91 82 77 80 82 78 95 95 82 53 93 99 84 76 74 62 63 66
67 38 21 19 28 100 97 77 55 52 60 40 45 36 30 31 36 36 40 42 45 55 65 62 61 63 72 83 81 81 78 78 85 95 87 92 78 64 83 86 84 80 73 64 60
63 36 26 24 64 100 92 48 58 52 77 42 39 31 30 28 33 33 34 37 35 40 48 50 62 71 73 68 81 80 81 81 93 98 75 62 79 38 70 71 80 79 79 75 69
61 35 29 26 88 79 96 49 64 69 45 41 44 35 30 29 31 34 35 37 36 51 48 57 56 60 80 80 73 86 86 79 80 89 61 79 91 49 51 54 67 66 78 76 68
46 46 26 40 100 98 86 70 72 67 50 38 45 41 38 34 34 43 43 38 37 46 58 77 69 71 80 87 89 90 94 64 61 59 55 81 73 48 47 40 56 56 61 62 49
44 97 41 100 100 98 84 84 65 51 39 41 45 51 38 38 37 43 38 45 51 57 73 79 77 63 68 72 84 94 93 85 81 74 68 62 66 49 44 53 53 48 50 50 61
50 98 64 86 91 100 76 77 63 49 36 40 51 37 34 35 38 33 39 50 60 63 80 75 89 74 69 62 80 90 95 98 92 88 62 51 57 45 47 51 53 53 44 43 66
48 99 97 97 99 97 94 76 58 59 46 35 45 33 30 32 37 43 44 57 75 78 80 85 84 86 72 77 87 92 98 98 97 94 58 45 41 47 48 44 46 48 40 42 44
31 94 96 99 99 97 84 68 61 62 45 36 33 29 28 32 36 43 40 44 63 74 88 78 80 93 79 77 82 80 92 94 98 90 92 71 46 52 52 44 41 41 41 41 47
78 96 94 96 98 91 73 58 53 62 33 38 34 22 28 29 38 32 34 43 54 77 77 63 84 74 59 85 91 99 85 74 91 97 96 64 54 63 59 53 43 43 44 52 56
89 98 94 98 98 97 76 66 72 60 35 29 32 24 23 25 26 25 27 35 42 50 56 66 76 80 64 79 81 85 89 90 74 94 99 80 70 58 55 61 62 54 56 60 60
88 97 93 92 94 96 80 68 57 56 39 25 27 28 28 28 19 20 20 28 38 34 40 49 54 63 71 77 72 66 52 48 58 70 80 97 82 74 63 61 65 66 62 58 54
94 100 99 98 94 97 88 59 67 54 28 25 26 30 30 26 19 18 20 24 26 36 50 42 41 66 81 94 69 46 42 46 63 67 72 63 75 78 70 66 61 66 67 65 60
95 100 97 96 91 95 52 60 60 43 19 27 27 30 24 21 17 17 22 24 33 48 32 38 52 63 82 75 76 85 88 99 100 100 98 99 99 78 73 70 72 70 68 68 67
Wind_Speed
25 25 26 27 30 31 33 33 26 24 24 17 16 18 19 15 5 3 6 9 13 16 19 24 19 12 16 20 23 24 27 29 23 21 26 24 30 42 21 26 32 35 28 37 40
24 27 27 26 27 28 31 33 27 23 23 17 15 17 18 9 6 6 9 10 11 12 12 8 4 10 13 17 21 24 26 25 17 21 28 22 23 44 25 26 27 31 32 31 30
29 26 24 22 29 26 29 34 27 25 23 16 13 17 13 12 7 9 13 16 16 11 10 3 5 10 10 15 17 22 21 27 21 12 19 29 26 25 38 24 32 38 34 35 36
34 30 27 26 26 23 26 30 28 23 24 18 13 15 15 12 9 10 11 12 11 7 1 10 8 8 9 11 15 16 20 22 26 22 8 15 16 27 42 23 24 32 33 35 35
32 33 29 26 21 26 24 28 29 25 24 20 13 14 17 15 11 9 8 8 5 5 10 9 8 6 7 8 11 21 20 22 16 25 17 24 31 23 31 31 30 28 33 35 29
29 30 30 29 29 30 26 33 28 26 22 22 15 16 15 15 10 7 3 9 9 11 7 10 9 6 7 11 14 19 17 14 18 28 29 17 34 22 28 34 29 34 30 34 22
30 30 26 30 28 28 20 24 28 21 14 22 17 14 13 11 9 3 1 4 6 3 4 2 3 5 7 13 17 14 18 13 14 11 7 13 31 34 27 30 35 29 31 29 14
27 30 28 28 27 26 26 26 29 22 15 17 19 16 15 12 8 3 5 0 3 5 2 1 3 2 6 6 17 16 18 22 15 8 28 21 28 24 29 28 31 34 30 27 19
28 28 28 28 26 28 23 25 28 21 13 18 19 19 13 9 6 1 1 3 3 6 5 3 2 2 6 6 6 17 8 28 23 15 32 13 10 29 27 26 29 35 36 29 24
32 30 26 28 26 22 26 28 22 21 14 14 20 8 8 8 3 2 3 6 4 2 1 0 3 3 4 3 2 7 15 21 24 19 18 22 9 11 29 23 28 32 34 31 27
31 28 25 23 22 21 27 22 21 19 14 15 16 11 9 9 2 2 4 4 7 5 1 2 2 5 1 4 2 4 8 15 16 15 13 13 11 10 25 27 29 31 32 35 29
25 23 21 19 17 19 22 21 23 19 17 18 17 12 9 9 6 2 6 5 7 9 5 5 5 5 1 4 4 3 5 4 7 7 4 7 13 8 25 23 33 30 30 25 23
20 19 17 14 14 20 18 27 20 15 12 22 21 12 9 8 9 2 4 6 6 7 10 8 7 4 4 1 2 3 3 3 1 1 4 6 8 12 24 30 32 32 30 29 26
19 16 12 13 13 12 19 18 15 9 6 11 10 10 13 10 8 4 3 3 3 5 9 8 10 8 6 5 3 1 3 1 3 5 2 1 1 16 18 31 32 32 33 33 32
16 15 12 15 13 10 10 3 9 9 1 4 9 7 9 9 4 3 4 3 4 5 5 4 5 10 10 9 6 4 3 2 4 3 4 5 5 9 23 28 30 30 32 33 33
14 17 17 17 10 14 8 4 11 6 2 3 7 8 9 9 7 4 3 3 4 4 5 9 9 8 9 10 10 5 5 4 5 4 5 7 7 5 14 22 28 30 27 26 27
15 18 20 14 9 10 11 7 6 3 1 3 5 7 7 7 6 4 1 3 3 3 3 5 2 8 8 7 10 10 8 4 4 4 3 4 7 9 4 12 23 25 28 29 26
13 12 11 13 10 12 16 17 4 7 3 3 5 7 6 5 4 3 2 4 3 4 4 4 1 4 2 8 6 13 11 5 5 4 2 3 5 2 2 12 12 21 29 34 35
9 0 12 17 7 12 16 14 7 6 1 1 4 6 6 7 2 2 1 1 1 3 3 4 1 8 3 3 9 7 17 11 0 1 3 3 7 11 7 5 5 16 20 30 25
9 9 8 17 11 16 21 10 13 2 3 2 3 5 3 4 4 2 0 1 0 2 3 4 5 2 4 5 7 10 9 6 11 5 5 4 5 8 4 1 4 14 10 15 25
7 5 8 17 15 20 20 12 14 10 4 1 2 1 2 2 5 2 2 0 1 2 4 5 4 3 9 2 4 5 5 6 3 2 2 3 3 3 4 4 3 6 7 12 15
6 2 5 19 23 20 17 15 12 10 5 4 2 2 3 2 3 2 2 1 1 2 5 6 4 6 7 9 6 5 7 8 5 3 3 7 4 4 9 9 2 2 6 10 16
4 6 1 20 21 15 11 13 12 14 5 3 3 1 2 3 2 3 2 3 3 3 2 6 3 5 2 2 3 5 8 10 10 3 7 4 4 11 15 10 2 3 8 10 13
7 4 3 20 20 13 7 16 13 12 7 5 5 3 3 5 5 3 4 3 4 5 7 9 6 7 7 9 12 12 9 5 4 3 8 8 3 5 7 12 12 3 6 8 9
8 2 6 21 21 11 9 16 13 6 8 4 2 6 4 3 5 5 5 5 5 5 7 5 5 7 8 9 13 16 12 9 8 5 4 3 10 5 6 10 4 4 8 9 9
8 6 8 1 23 12 12 15 12 10 6 2 5 4 4 5 5 6 5 4 2 4 6 5 3 5 5 11 3 2 3 4 8 10 12 11 15 15 15 14 12 9 8 11 14
12 9 7 7 14 13 14 12 11 6 4 3 3 5 5 6 7 6 3 3 2 3 5 2 3 5 3 8 7 6 3 1 3 3 6 7 8 12 13 21 15 16 18 16 15
Wind_Direction
318 321 319 319 322 325 330 334 332 326 322 325 338 342 349 338 7 356 313 302 323 306 297 292 293 248 200 210 208 211 212 221 243 243 227 231 212 209 215 206 202 213 216 225 221
305 302 312 311 320 324 323 332 331 323 318 317 340 342 351 350 23 337 323 302 314 291 305 304 269 189 194 202 203 201 209 215 231 234 252 217 222 210 215 209 204 203 209 212 213
299 294 300 310 314 315 320 325 326 322 320 312 332 346 340 346 306 335 343 329 316 292 297 249 152 160 193 193 204 202 208 226 224 257 219 225 196 204 211 217 217 214 218 222 215
296 294 298 297 317 324 320 320 326 325 317 308 320 335 335 335 340 330 326 327 324 295 318 138 153 168 205 216 214 202 220 226 241 260 218 218 216 194 200 199 220 223 229 233 225
298 292 289 286 301 313 329 316 327 327 313 305 313 316 325 330 321 326 322 2 55 90 133 154 176 161 205 214 210 213 231 230 246 236 302 215 208 194 209 225 218 216 219 219 232
302 298 289 280 287 297 308 311 306 318 314 308 309 311 321 322 328 318 357 46 62 86 68 171 187 205 229 193 199 217 227 235 245 253 292 224 199 203 204 219 213 217 210 216 240
306 302 294 287 284 282 315 306 311 303 313 311 307 315 320 312 325 289 74 70 87 91 83 143 204 226 212 190 202 217 209 220 246 265 287 258 209 208 205 211 207 210 210 217 225
300 297 296 288 272 279 282 301 307 305 297 309 297 302 322 302 317 302 226 40 258 174 100 69 183 207 167 205 190 187 209 218 233 273 332 325 217 215 207 204 211 215 216 215 224
308 298 291 287 283 267 274 285 306 294 301 304 300 296 307 305 302 310 153 122 98 170 146 39 67 69 125 120 170 199 214 222 244 267 316 335 204 224 223 204 206 208 211 209 213
305 299 286 282 287 275 265 270 293 296 292 294 290 287 306 303 281 185 128 144 140 149 172 260 316 91 143 259 253 212 198 215 235 263 283 307 199 206 231 228 209 208 209 210 203
299 295 289 282 280 268 255 280 282 292 292 289 277 283 296 295 278 229 176 151 168 155 230 235 226 154 335 322 345 231 241 217 230 260 276 300 195 177 217 224 210 211 210 202 201
297 292 296 294 283 260 253 269 269 271 278 285 278 268 273 283 278 217 186 196 190 189 205 222 219 225 110 24 93 143 149 159 245 269 312 342 219 191 200 207 207 211 209 213 201
298 290 292 297 268 262 263 257 278 263 250 277 275 254 244 258 273 224 169 179 200 215 224 220 233 218 190 77 76 127 128 117 152 273 316 308 245 207 201 205 208 212 209 213 212
296 286 286 282 261 255 274 269 262 224 265 276 271 226 231 238 254 237 194 187 220 221 226 239 235 235 234 227 223 245 140 169 84 149 285 285 50 206 203 196 203 210 217 216 219
288 275 266 259 244 226 275 238 217 183 298 260 217 191 195 200 219 230 259 274 277 240 232 252 242 241 238 240 233 249 205 229 207 213 291 265 278 160 199 201 198 204 213 220 227
274 258 252 252 221 214 267 184 180 159 245 243 195 199 205 217 227 258 286 301 310 292 255 249 255 253 248 232 217 219 208 198 183 217 273 254 227 190 191 204 207 201 205 214 222
260 253 255 243 167 205 210 170 153 188 140 237 222 198 197 206 213 230 252 336 338 318 316 321 270 243 257 237 224 212 198 175 207 212 247 261 227 250 211 202 204 215 209 210 220
252 272 248 187 189 194 169 163 177 186 291 300 217 196 197 204 214 221 274 325 12 8 10 40 37 55 264 241 237 222 222 240 215 206 207 244 247 299 292 212 173 203 207 217 220
243 293 188 171 164 174 161 182 150 173 216 236 197 187 202 207 208 235 273 160 73 11 1 1 236 327 342 262 241 247 228 228 82 126 238 200 283 291 287 239 217 190 210 213 219
233 177 161 173 171 187 178 192 160 224 75 121 177 187 182 218 222 215 204 172 62 338 341 327 308 308 0 342 268 263 267 224 214 207 218 185 257 248 351 221 204 175 191 218 215
233 161 210 174 158 181 190 185 167 207 12 95 211 306 225 228 229 239 177 293 234 297 325 321 288 283 322 3 338 323 285 280 311 292 266 158 136 326 32 53 165 187 173 184 198
221 133 109 165 172 190 195 187 156 222 301 250 275 263 248 249 261 248 218 242 276 280 313 306 289 306 314 299 276 275 335 1 323 156 247 334 82 343 352 346 40 223 202 184 188
151 112 177 164 186 198 195 180 187 214 293 239 256 304 267 239 251 256 306 321 296 286 300 313 274 308 312 34 54 106 17 16 344 286 217 240 99 86 63 35 340 210 192 181 185
153 147 198 191 198 213 191 170 189 202 294 252 249 296 284 269 263 287 310 310 303 297 302 305 280 258 278 290 284 287 280 308 316 348 335 225 170 139 91 48 44 129 168 171 187
161 161 204 200 206 201 177 181 196 228 267 286 284 264 270 280 295 298 323 309 307 316 318 303 285 308 299 290 267 266 273 260 260 295 285 312 215 233 281 308 348 91 155 166 176
163 130 205 215 212 220 199 185 197 242 249 326 255 324 262 266 283 314 319 311 319 340 338 340 331 13 12 347 350 231 256 270 285 281 272 261 265 249 251 258 251 228 205 185 183
200 120 157 223 215 205 171 192 197 260 234 262 313 268 284 279 297 312 300 282 281 327 350 50 26 19 23 36 77 87 63 341 326 273 269 276 267 268 238 227 223 211 222 221 221